Lapse_Rate
6.6 6.9 6.9 7.1 7.3 6.9 6.4 6.4 6.4 7.0 7.1 7.1 6.8 6.6 6.4 6.1 6.0 6.0 5.9 5.8 5.8 5.8 5.6 5.3 5.1 4.9 4.6 4.4 4.3 4.1 4.1 4.0 4.1 4.3 4.5 4.6 4.4 4.4 4.2 4.1 3.8 3.5 3.3 3.1
6.5 6.7 6.8 6.8 7.1 7.0 6.6 6.7 6.5 6.8 6.8 7.0 6.6 6.3 6.2 6.1 5.9 5.7 5.7 5.7 5.7 5.6 5.4 5.2 5.0 4.8 4.5 4.4 4.2 4.2 4.4 4.4 4.5 4.7 4.6 4.7 4.5 4.3 4.1 3.8 3.4 3.1 3.1 3.3
6.2 6.3 6.2 5.8 6.5 6.8 7.1 7.1 7.1 6.6 7.4 6.9 6.7 6.4 6.0 5.8 5.6 5.6 5.5 5.6 5.4 5.2 5.0 4.8 4.5 4.4 4.3 4.3 4.4 4.5 4.7 4.7 4.8 4.8 4.8 4.5 4.3 3.9 3.5 3.2 3.2 3.3 3.6 4.0
6.3 5.8 4.0 6.1 6.5 6.8 6.7 6.8 6.8 6.8 6.8 6.6 6.4 6.3 5.9 5.8 5.6 5.4 5.3 5.2 4.9 4.7 4.6 4.5 4.4 4.3 4.3 4.4 4.8 5.0 4.9 5.0 4.9 4.7 4.4 4.1 3.6 3.4 3.4 3.4 3.7 3.8 4.5 5.4
6.2 5.7 5.5 5.5 6.4 7.0 6.9 7.1 6.8 6.8 6.8 6.7 6.6 6.4 6.4 6.2 5.7 5.1 4.8 4.7 4.5 4.4 4.3 4.3 4.2 4.3 4.8 5.1 5.2 5.1 5.0 4.8 4.5 4.2 3.9 3.6 3.5 3.5 3.7 3.7 4.2 5.0 5.9 6.5
5.6 5.8 4.9 6.3 6.7 6.8 7.0 6.6 7.0 7.1 7.1 7.0 6.7 6.6 6.6 6.0 5.3 4.8 4.4 4.2 4.2 4.2 4.3 4.5 4.8 5.2 5.4 5.2 5.0 4.9 4.6 4.3 4.2 3.9 3.6 3.5 3.7 3.7 4.1 4.7 5.6 6.4 6.9 6.8
6.3 6.3 6.2 6.2 6.8 6.6 6.3 6.8 6.9 7.0 6.9 6.8 6.6 6.0 5.5 5.3 4.8 4.4 4.3 4.2 4.4 4.5 4.9 5.2 5.3 5.2 4.9 4.9 4.8 4.5 4.2 4.2 4.0 3.8 3.8 4.0 4.1 4.7 5.4 6.1 6.7 6.7 6.9 6.9
6.0 6.1 5.8 6.2 6.5 6.5 6.6 6.5 6.6 6.6 6.6 6.5 5.9 5.4 5.2 4.8 4.4 4.2 4.3 4.4 4.6 5.0 5.2 5.1 4.9 4.8 4.9 4.8 4.5 4.4 4.3 4.2 4.1 4.2 4.3 4.6 5.0 5.9 6.5 6.8 6.9 7.0 7.0 6.9
6.5 6.4 6.3 6.2 6.3 6.3 6.3 6.2 6.1 6.1 6.0 5.6 5.3 4.9 4.7 4.4 4.3 4.5 5.0 5.2 5.2 5.1 5.1 5.0 4.9 4.8 4.7 4.5 4.4 4.4 4.2 4.3 4.4 4.5 4.9 5.4 6.1 6.7 6.9 6.8 6.7 7.0 6.8 6.6
6.7 6.2 6.1 5.9 5.8 5.8 5.7 5.6 5.6 5.5 5.2 4.9 4.8 4.7 4.6 4.8 5.1 5.3 5.3 5.1 5.1 5.1 5.0 4.9 4.8 4.7 4.5 4.4 4.3 4.2 4.3 4.5 4.7 5.2 5.9 6.4 6.7 6.6 6.7 6.6 6.8 6.9 6.8 6.4
6.2 6.1 6.0 5.6 5.5 5.4 5.5 5.4 5.4 4.9 4.6 4.4 4.6 4.7 4.7 5.0 5.0 5.0 5.0 5.0 5.0 4.9 4.8 4.8 4.6 4.5 4.4 4.3 4.3 4.5 4.7 5.0 5.5 6.1 6.7 6.8 6.7 6.6 6.7 6.6 6.6 6.7 6.6 6.4
5.9 6.1 5.8 5.8 5.7 5.5 5.1 5.1 5.1 4.9 4.7 4.6 4.6 4.7 4.9 4.9 5.0 4.9 4.9 4.9 4.8 4.7 4.6 4.5 4.4 4.3 4.3 4.3 4.5 4.8 5.2 5.8 6.4 6.8 6.7 6.6 6.6 6.6 6.5 6.6 6.7 6.7 6.6 6.3
6.0 5.9 5.8 5.7 5.3 5.3 5.3 5.2 4.7 4.6 4.2 4.6 4.8 4.8 4.8 4.8 4.8 4.8 4.8 4.7 4.6 4.5 4.4 4.2 4.1 4.3 4.2 4.6 5.0 5.6 6.1 6.5 6.7 6.6 6.5 6.4 6.4 6.5 6.6 6.8 6.7 6.6 6.5 6.3
5.8 5.9 5.7 5.5 5.5 5.1 4.7 4.4 4.1 4.4 4.7 4.8 4.8 4.8 4.8 4.8 4.8 4.7 4.7 4.6 4.5 4.4 4.2 4.2 4.4 4.6 4.8 5.3 6.0 6.4 6.6 6.6 6.5 6.4 6.3 6.3 6.3 6.4 6.4 6.5 6.6 6.5 6.4 6.2
5.3 5.2 5.3 5.3 4.8 4.4 4.2 4.1 4.6 4.8 4.8 4.8 4.8 4.8 4.9 4.9 4.8 4.7 4.7 4.6 4.6 4.5 4.5 4.7 5.0 5.3 5.8 6.2 6.6 6.7 6.6 6.4 6.3 6.3 6.3 6.2 6.3 6.3 6.2 6.2 6.2 6.3 6.3 6.3
4.7 4.3 4.3 4.3 4.3 4.3 4.5 4.7 4.7 4.8 4.9 4.9 5.0 5.0 5.0 4.9 4.8 4.9 4.9 4.8 4.8 5.0 5.1 5.6 6.1 6.3 6.4 6.6 6.6 6.5 6.4 6.3 6.2 6.4 6.4 6.4 6.2 6.2 6.1 6.0 6.1 6.0 6.0 6.1
4.5 4.4 4.5 4.6 4.6 4.7 4.7 4.9 5.0 5.0 5.1 5.2 5.1 5.1 5.0 5.1 5.2 5.1 5.1 5.2 5.4 5.7 6.0 6.4 6.5 6.5 6.5 6.5 6.3 6.3 6.3 6.4 6.5 6.4 6.2 6.1 6.1 6.0 5.9 5.9 5.8 5.8 5.7 5.7
4.7 4.8 4.7 4.8 4.9 5.0 5.1 5.2 5.2 5.3 5.3 5.3 5.3 5.3 5.4 5.4 5.4 5.6 5.8 5.9 6.2 6.5 6.6 6.7 6.7 6.6 6.4 6.2 6.2 6.2 6.4 6.4 6.3 6.3 6.1 6.1 6.0 6.0 5.9 5.7 5.6 5.6 5.7 5.6
5.0 5.1 5.2 5.2 5.2 5.3 5.4 5.5 5.5 5.6 5.6 5.6 5.6 5.8 5.7 5.9 6.2 6.2 6.3 6.4 6.6 6.8 6.7 6.7 6.5 6.3 6.0 5.9 6.1 6.2 6.3 6.2 6.2 6.1 6.0 5.9 5.8 5.7 5.7 5.7 5.6 5.5 5.5 5.3
5.2 5.3 5.4 5.5 5.6 5.7 5.8 5.9 6.0 6.0 5.9 6.0 6.3 6.4 6.5 6.6 6.6 6.6 6.6 6.8 6.8 7.0 6.8 6.6 6.3 6.0 6.0 6.0 6.1 6.1 6.2 6.2 6.1 6.0 5.8 5.8 5.7 5.6 5.6 5.5 5.4 5.4 5.2 5.2
6.1 6.2 6.2 6.3 6.4 6.4 6.4 6.4 6.5 6.7 6.9 7.0 6.9 6.9 7.0 7.0 6.9 6.9 6.8 6.8 6.7 6.6 6.4 6.1 6.0 6.0 6.0 6.0 6.0 6.0 6.1 6.0 5.9 5.9 5.8 5.8 5.7 5.7 5.6 5.4 5.4 5.3 5.2 5.2
6.7 6.8 6.9 7.0 7.2 7.3 7.3 7.4 7.4 7.4 7.4 7.3 7.1 7.1 7.2 7.0 6.8 6.8 6.5 6.6 6.5 6.4 6.2 6.0 6.0 6.0 6.0 6.0 6.0 6.0 5.9 6.0 6.0 6.0 6.0 5.9 5.9 5.8 5.7 5.6 5.5 5.4 5.4 5.3
7.7 7.8 7.9 8.0 8.0 8.0 7.9 7.8 7.7 7.5 7.3 7.2 7.1 7.1 7.0 6.8 6.6 6.7 6.3 6.3 6.4 6.3 6.2 6.0 6.0 6.0 6.0 5.9 6.0 6.0 6.1 6.3 6.3 6.2 6.2 6.2 6.2 6.0 6.0 5.9 5.8 5.7 5.7 5.7
8.3 8.3 8.3 8.2 8.1 8.0 7.8 7.6 7.4 7.3 7.2 6.9 6.9 6.9 6.8 6.6 6.5 6.7 6.5 6.4 6.3 6.2 6.1 6.0 6.1 6.0 5.9 6.0 6.1 6.3 6.5 6.5 6.4 6.4 6.4 6.4 6.3 6.2 6.2 6.1 6.0 5.8 5.7 5.6
8.2 8.2 8.3 8.3 8.0 7.8 7.6 7.4 7.2 7.0 6.8 6.7 6.8 6.8 6.7 6.6 6.5 6.5 6.4 6.3 6.3 6.2 6.3 6.2 6.1 6.1 6.1 6.2 6.4 6.4 6.5 6.6 6.6 6.5 6.5 6.5 6.4 6.3 6.2 6.2 6.1 6.0 5.9 5.8
8.3 8.3 8.1 7.9 7.7 7.5 7.3 7.1 6.9 6.7 6.7 6.5 6.6 6.6 6.5 6.5 6.5 6.3 6.3 6.3 6.3 6.3 6.3 6.3 6.3 6.2 6.2 6.2 6.4 6.5 6.6 6.6 6.5 6.5 6.4 6.4 6.3 6.2 6.2 6.1 6.0 6.0 5.9 5.9
8.2 8.1 7.8 7.5 7.2 6.9 6.8 6.7 6.7 6.5 6.5 6.5 6.4 6.4 6.4 6.4 6.3 6.3 6.3 6.3 6.4 6.3 6.3 6.3 6.2 6.2 6.2 6.2 6.4 6.5 6.4 6.3 6.3 6.3 6.3 6.3 6.2 6.2 6.2 6.1 6.1 6.0 6.0 6.0
Wind_Speed
3 4 4 5 9 14 10 5 6 6 10 7 12 12 10 8 9 11 10 8 7 6 4 3 2 1 1 2 3 3 5 5 7 8 8 9 9 9 10 10 11 12 13 13
2 3 5 2 3 11 8 2 3 5 4 2 4 9 8 12 12 11 10 8 6 5 4 2 0 2 2 4 5 4 5 6 8 8 9 9 10 10 11 12 12 13 14 14
3 2 4 4 9 11 6 4 7 7 7 7 4 10 15 13 12 12 9 7 6 4 2 2 3 3 4 5 4 5 6 8 9 9 9 10 10 11 12 14 14 15 15 15
3 1 1 3 2 5 4 4 5 5 5 4 7 6 9 7 9 9 7 6 5 3 1 3 2 3 4 4 5 6 7 8 9 10 10 11 11 13 14 13 14 14 16 15
5 4 2 4 5 8 9 9 10 9 8 10 14 10 6 5 5 6 6 5 3 2 2 2 3 4 4 5 5 6 8 9 10 10 11 12 12 13 13 13 14 14 14 15
3 5 8 3 1 2 3 3 9 10 15 19 15 7 5 7 6 6 6 4 2 1 1 4 4 4 4 6 6 8 9 10 9 10 11 12 13 13 13 12 14 12 16 14
3 2 5 3 4 3 5 4 6 10 15 15 4 1 10 8 6 5 4 3 2 2 3 4 4 3 5 6 7 9 9 9 9 9 11 11 13 12 13 14 14 14 16 15
3 3 6 3 4 6 4 4 10 13 9 13 13 15 11 8 7 5 4 3 2 2 4 4 4 3 6 7 9 8 9 9 10 10 9 10 13 13 13 13 15 15 15 14
2 2 2 3 3 3 3 11 5 12 12 15 13 10 7 6 5 3 0 2 2 3 4 4 4 4 6 8 8 9 9 10 11 11 10 10 11 12 11 12 11 13 12 12
4 4 4 5 6 7 8 14 12 13 12 11 12 8 6 5 3 2 2 1 1 3 4 6 5 5 7 8 9 9 10 11 10 11 13 11 9 9 10 10 11 11 12 13
4 3 9 8 6 13 15 15 14 10 8 9 9 6 5 4 2 1 2 2 2 4 5 6 6 7 8 9 9 9 10 10 11 9 11 12 9 9 10 11 13 13 12 13
2 10 6 6 8 13 14 12 11 13 7 5 6 6 4 3 1 1 4 3 4 5 5 6 6 8 8 8 8 9 10 9 8 10 8 9 10 11 18 18 23 25 25 19
5 6 12 14 8 4 11 9 8 8 7 6 4 4 3 2 0 3 4 5 5 6 7 7 7 8 8 8 8 9 9 10 8 10 8 10 9 9 12 12 19 23 23 24
13 18 13 10 6 8 12 8 10 7 6 5 4 3 2 1 2 4 5 5 6 6 6 6 7 9 9 8 8 9 9 16 9 8 8 7 9 8 9 11 12 10 17 20
4 7 12 11 11 9 8 7 7 6 4 3 2 1 2 3 4 5 5 6 5 5 6 6 8 9 8 7 9 9 9 8 8 6 7 10 8 8 8 9 10 10 11 15
10 16 14 14 11 8 7 6 6 3 2 1 1 2 4 4 5 5 5 5 4 6 8 7 8 9 7 8 9 8 8 14 10 7 7 7 7 8 8 9 9 9 9 10
18 11 11 8 7 5 6 4 3 2 0 2 4 4 4 5 5 5 5 5 5 7 8 8 9 8 8 8 8 7 6 5 12 6 6 7 7 8 8 8 8 8 9 11
9 7 8 9 7 5 4 4 2 1 2 2 3 3 4 5 5 5 5 5 5 7 7 7 6 8 7 8 8 4 5 5 6 6 6 7 7 7 7 8 8 8 9 10
9 9 8 7 6 5 3 2 0 2 3 3 3 5 4 5 5 4 5 5 5 6 6 6 11 10 7 8 8 3 4 5 6 5 6 9 7 7 7 8 8 8 9 9
8 7 7 5 4 2 1 1 1 2 3 3 3 4 5 5 4 4 4 5 5 5 7 8 8 6 6 5 8 3 4 5 5 5 5 5 5 6 6 10 9 8 8 8
7 6 6 4 3 2 2 1 1 3 5 3 3 4 4 5 5 4 4 4 5 6 7 11 5 4 3 3 4 3 4 4 4 4 5 5 5 5 6 7 7 7 8 8
3 4 5 4 3 3 3 3 2 2 3 4 3 4 4 5 5 4 5 5 4 11 6 3 3 4 3 6 3 3 3 4 3 3 3 4 4 5 6 6 7 7 7 8
4 3 3 3 3 4 5 4 3 3 3 4 4 4 4 3 3 2 4 4 4 9 1 3 3 6 7 4 3 3 3 4 3 3 3 3 4 6 5 6 6 7 7 7
2 4 2 4 3 3 4 4 3 4 4 4 4 4 3 2 3 3 3 8 11 4 3 2 5 7 8 3 3 3 3 3 3 3 3 8 6 6 6 6 6 6 6 8
4 4 4 5 4 3 4 3 4 4 3 5 5 4 4 3 3 4 3 4 4 3 2 7 6 7 3 3 3 3 3 3 3 3 3 4 4 5 5 5 5 7 6 6
5 3 3 4 3 2 2 2 2 2 2 3 3 3 3 3 3 3 2 3 2 4 2 2 1 3 3 2 2 3 3 3 4 3 3 3 3 4 4 5 5 5 6 6
3 5 2 3 2 3 3 3 3 3 3 3 5 4 3 3 3 1 3 2 3 3 2 2 2 3 2 3 3 3 2 3 6 3 3 3 3 3 4 4 4 4 5 5
Wind_Direction
52 108 132 167 172 171 190 174 165 211 188 211 191 181 171 145 137 138 135 131 131 130 127 118 85 34 359 296 285 266 266 277 279 283 285 289 295 296 290 287 290 291 291 287
50 51 44 105 159 190 208 173 266 124 235 74 84 107 143 156 150 145 144 143 139 132 124 106 217 271 275 270 280 282 297 303 302 303 305 300 293 289 290 290 290 287 285 282
170 89 88 332 206 185 180 182 166 184 206 160 152 164 165 158 150 146 145 143 136 125 151 228 254 256 272 290 301 324 322 310 304 300 295 293 292 291 291 290 288 285 284 281
148 42 232 230 70 168 132 175 168 111 145 139 130 108 109 121 134 134 139 135 131 150 219 269 256 275 292 326 322 311 304 299 297 297 295 293 288 287 287 284 285 287 287 285
147 191 277 325 195 157 168 238 184 144 126 119 117 92 46 117 120 135 138 139 146 169 217 269 300 327 333 313 302 304 299 294 289 285 284 287 286 289 291 292 291 291 289 291
149 156 206 250 125 177 144 290 163 144 151 145 148 147 168 158 128 122 123 127 124 25 1 338 321 333 314 298 303 295 290 281 281 281 282 287 290 294 293 292 293 295 293 291
163 202 286 237 162 159 112 236 127 138 144 148 123 174 138 135 113 116 112 80 70 26 309 291 304 307 285 282 279 279 279 285 284 286 290 290 293 297 297 296 292 292 291 293
105 93 253 144 72 167 139 31 117 116 111 103 107 105 116 117 121 105 67 36 7 300 286 288 292 277 282 283 286 284 288 292 296 295 293 296 295 296 294 294 294 296 295 294
135 154 16 23 35 59 111 125 115 111 122 118 114 116 123 129 107 84 106 252 231 231 286 293 288 276 285 294 297 299 299 298 300 300 297 295 295 297 300 299 297 297 295 292
143 358 55 66 74 84 102 111 109 114 114 114 119 120 118 124 142 174 215 296 319 330 309 298 294 290 281 295 295 300 302 302 303 304 307 308 304 297 298 297 295 292 290 287
78 93 98 52 85 109 103 103 100 91 105 114 116 121 126 129 116 26 338 329 319 312 299 291 294 293 293 299 307 306 304 304 306 305 307 308 300 293 291 289 293 302 305 306
176 162 108 129 119 113 110 113 113 114 104 98 104 108 108 95 102 344 326 322 319 300 285 288 294 294 298 301 299 300 305 306 308 310 305 302 297 297 294 307 316 311 314 313
131 89 104 126 113 85 112 114 110 106 111 111 89 105 112 126 10 317 326 309 301 294 295 294 296 298 298 297 297 298 296 302 300 303 296 298 302 319 314 314 312 314 318 322
104 112 110 150 133 111 113 107 103 95 92 95 105 103 130 198 297 298 291 284 283 285 292 294 299 296 298 298 296 293 292 298 300 294 295 313 315 316 311 315 319 319 320 323
101 94 128 111 106 98 101 103 89 83 79 66 89 143 187 265 276 284 287 291 294 298 293 296 297 295 299 296 299 298 305 304 295 304 319 315 313 307 308 313 317 316 320 327
106 109 110 110 112 107 103 90 96 92 85 56 353 297 267 257 271 285 294 302 321 309 301 301 295 295 298 297 299 299 306 301 321 315 316 313 313 313 317 323 323 322 326 328
112 104 108 106 118 112 99 101 105 104 350 279 270 277 286 292 297 299 307 304 298 290 295 294 292 299 300 299 300 308 298 322 324 319 322 322 314 319 326 325 322 324 327 331
87 91 97 119 126 118 104 99 112 186 228 271 296 297 299 307 292 297 295 299 299 294 293 287 290 297 302 303 306 305 327 317 322 324 323 325 326 331 324 324 322 329 332 338
86 98 97 101 111 117 130 138 157 306 304 304 305 297 294 289 293 289 296 300 291 286 298 304 306 316 302 312 329 345 331 331 331 331 333 333 335 330 336 343 339 342 340 342
88 84 92 95 95 96 106 121 318 300 307 312 301 298 300 294 299 299 295 281 274 274 293 292 312 307 312 310 355 351 341 341 342 338 339 348 335 334 331 347 350 347 344 349
86 87 87 84 76 54 47 23 336 305 303 298 278 286 291 300 306 304 307 309 295 298 309 319 313 309 294 21 18 2 357 350 349 343 341 333 329 336 338 341 340 346 344 347
69 68 60 45 23 335 352 339 319 307 325 324 320 319 317 302 307 301 267 262 289 312 308 300 301 331 10 33 16 10 5 4 350 343 342 340 343 341 342 343 352 354 348 351
57 48 43 30 7 324 326 340 351 334 332 320 307 306 294 277 279 288 302 290 303 302 351 312 10 40 45 35 26 20 18 4 358 353 343 343 355 359 353 354 357 357 351 353
39 32 19 358 346 347 345 334 344 329 308 298 295 290 285 289 298 253 271 299 311 0 4 18 54 62 58 33 24 26 17 13 10 2 359 28 21 14 3 351 343 347 348 348
29 5 358 355 342 333 332 319 325 326 332 313 304 303 299 271 240 283 279 285 340 65 43 32 54 57 40 43 29 25 17 347 23 36 13 16 3 355 352 349 343 358 353 348
3 342 327 326 314 307 297 302 285 286 288 300 297 292 297 287 283 297 295 107 75 76 70 45 53 34 15 11 36 21 23 17 31 10 16 357 350 351 341 338 338 338 337 335
347 350 322 340 316 318 304 305 335 289 307 290 287 280 273 285 295 20 113 89 96 78 68 33 4 38 43 42 24 21 16 17 21 33 12 355 344 328 329 325 319 317 322 329